CSS7120 ZSHC-ZBAA

Flight info

Callsign CSS7120
Flight time N/A
Altitude 34100
Route NIVIK5E NIVIK W135 UPKEK/K0850S1100 W135 DOGVI A470 DPX A593 DALIM W157 BEKDO/K0848S1070 W157 AVBOX AVBOX6J
Aircraft B752/M-SDE2E3FGHIJ3J4J7RWXY/LB1

Departure

Time 2026-04-29 06:52
Airport Hangzhou Xiaoshan International Airport (ZSHC)

Arrival

Time N/A
Airport Beijing Capital International Airport (ZBAA)
Time Latitude Longitude Altitude Speed Heading
2026-04-29 06:39 30.22812 120.42293 30 ft 0 kts 332°
2026-04-29 06:45 30.22809 120.42296 30 ft 2 kts 333°
2026-04-29 06:45 30.22790 120.42310 30 ft 3 kts 315°
2026-04-29 06:45 30.22780 120.42330 30 ft 2 kts 285°
2026-04-29 06:45 30.22774 120.42345 30 ft 2 kts 285°
2026-04-29 06:46 30.22771 120.42362 30 ft 2 kts 277°
2026-04-29 06:46 30.22770 120.42380 30 ft 2 kts 265°
2026-04-29 06:46 30.22773 120.42396 30 ft 2 kts 254°
2026-04-29 06:46 30.22778 120.42412 30 ft 2 kts 244°
2026-04-29 06:47 30.22784 120.42426 30 ft 1 kts 241°
2026-04-29 06:47 30.22785 120.42429 30 ft 0 kts 242°
2026-04-29 06:48 30.22785 120.42428 30 ft 0 kts 242°
2026-04-29 06:48 30.22771 120.42397 30 ft 9 kts 242°
2026-04-29 06:48 30.22727 120.42300 30 ft 16 kts 243°
2026-04-29 06:48 30.22675 120.42181 30 ft 16 kts 243°
2026-04-29 06:49 30.22622 120.42061 30 ft 16 kts 243°
2026-04-29 06:49 30.22570 120.41943 30 ft 16 kts 242°
2026-04-29 06:49 30.22511 120.41808 30 ft 20 kts 243°
2026-04-29 06:49 30.22438 120.41680 30 ft 14 kts 201°
2026-04-29 06:50 30.22362 120.41710 30 ft 11 kts 152°
2026-04-29 06:50 30.22275 120.41761 30 ft 16 kts 150°
2026-04-29 06:50 30.22236 120.41830 30 ft 11 kts 83°
2026-04-29 06:50 30.22259 120.41890 30 ft 0 kts 63°
2026-04-29 06:51 30.22261 120.41892 30 ft 0 kts 63°
2026-04-29 06:51 30.22282 120.41941 30 ft 26 kts 62°
2026-04-29 06:51 30.22481 120.42391 30 ft 99 kts 62°
2026-04-29 06:51 30.22899 120.43323 62 ft 160 kts 59°
2026-04-29 06:52 30.23455 120.44509 675 ft 174 kts 60°
2026-04-29 06:52 30.23879 120.45860 1366 ft 189 kts 86°
2026-04-29 06:52 30.23761 120.47444 1779 ft 208 kts 94°
2026-04-29 06:52 30.23606 120.49168 2266 ft 223 kts 93°
2026-04-29 06:53 30.23450 120.50990 2747 ft 239 kts 93°
2026-04-29 06:53 30.23268 120.52973 3297 ft 254 kts 93°
2026-04-29 06:53 30.23075 120.54998 4100 ft 258 kts 95°
2026-04-29 06:53 30.22434 120.56944 4876 ft 269 kts 123°
2026-04-29 06:54 30.21001 120.58362 5642 ft 278 kts 147°
2026-04-29 06:54 30.19282 120.59405 6412 ft 281 kts 148°
2026-04-29 06:54 30.17466 120.60210 7099 ft 289 kts 169°
2026-04-29 06:54 30.15439 120.60064 7758 ft 298 kts 196°
2026-04-29 06:55 30.13543 120.58942 7880 ft 310 kts 220°
2026-04-29 06:55 30.12229 120.57063 7820 ft 296 kts 246°
2026-04-29 06:55 30.11494 120.54900 7758 ft 284 kts 248°
2026-04-29 06:55 30.10717 120.52833 7708 ft 279 kts 245°
2026-04-29 06:56 30.09895 120.50816 7687 ft 278 kts 243°
2026-04-29 06:56 30.09037 120.48792 7760 ft 281 kts 243°
2026-04-29 06:56 30.08159 120.46752 7638 ft 281 kts 243°
2026-04-29 06:56 30.06775 120.43607 7658 ft 278 kts 244°
2026-04-29 06:57 30.06252 120.41451 7720 ft 281 kts 269°
2026-04-29 06:57 30.06623 120.39236 7716 ft 283 kts 296°
2026-04-29 06:57 30.07823 120.37472 7715 ft 281 kts 323°
2026-04-29 06:57 30.09511 120.36324 7703 ft 282 kts 332°
2026-04-29 06:58 30.11231 120.35265 7683 ft 281 kts 332°
2026-04-29 06:58 30.14701 120.33162 7686 ft 280 kts 332°
2026-04-29 06:58 30.16441 120.32134 7686 ft 281 kts 333°
2026-04-29 06:58 30.18174 120.31108 7684 ft 281 kts 333°
2026-04-29 06:59 30.19931 120.30071 7684 ft 281 kts 333°
2026-04-29 06:59 30.21656 120.29054 7684 ft 281 kts 333°
2026-04-29 06:59 30.23418 120.28014 7685 ft 281 kts 333°
2026-04-29 06:59 30.25158 120.26990 7684 ft 281 kts 333°
2026-04-29 07:00 30.26889 120.25967 7685 ft 281 kts 333°
2026-04-29 07:00 30.28620 120.24940 7685 ft 281 kts 333°
2026-04-29 07:00 30.30367 120.23905 7685 ft 281 kts 333°
2026-04-29 07:00 30.32109 120.22871 7685 ft 281 kts 333°
2026-04-29 07:01 30.33888 120.21911 7686 ft 281 kts 337°
2026-04-29 07:01 30.35682 120.21024 7685 ft 281 kts 336°
2026-04-29 07:01 30.37470 120.20127 7684 ft 281 kts 336°
2026-04-29 07:01 30.39279 120.19222 7685 ft 281 kts 336°
2026-04-29 07:02 30.41077 120.18320 7685 ft 281 kts 336°
2026-04-29 07:02 30.42878 120.17416 7685 ft 281 kts 336°
2026-04-29 07:02 30.44676 120.16512 7685 ft 281 kts 336°
2026-04-29 07:02 30.46450 120.15621 7685 ft 281 kts 336°
2026-04-29 07:03 30.48233 120.14669 7688 ft 284 kts 328°
2026-04-29 07:03 30.49844 120.13335 8244 ft 277 kts 320°
2026-04-29 07:03 30.51389 120.11971 8291 ft 279 kts 322°
2026-04-29 07:03 30.52952 120.10635 8286 ft 283 kts 321°
2026-04-29 07:04 30.54542 120.09278 8314 ft 284 kts 322°
2026-04-29 07:04 30.56149 120.07918 8386 ft 284 kts 322°
2026-04-29 07:04 30.57746 120.06569 8443 ft 285 kts 322°
2026-04-29 07:04 30.59339 120.05211 8508 ft 285 kts 321°
2026-04-29 07:05 30.60956 120.03838 8574 ft 285 kts 322°
2026-04-29 07:05 30.62572 120.02479 8627 ft 284 kts 322°
2026-04-29 07:05 30.64165 120.01133 8610 ft 285 kts 322°
2026-04-29 07:05 30.65759 119.99782 8608 ft 286 kts 322°
2026-04-29 07:06 30.67369 119.98404 8710 ft 286 kts 322°
2026-04-29 07:06 30.68988 119.97031 8820 ft 285 kts 322°
2026-04-29 07:06 30.70599 119.95675 8872 ft 287 kts 322°
2026-04-29 07:06 30.72185 119.94318 8939 ft 287 kts 322°
2026-04-29 07:07 30.73819 119.92947 9014 ft 287 kts 323°
2026-04-29 07:07 30.75448 119.91584 9186 ft 289 kts 323°
2026-04-29 07:07 30.77081 119.90234 9696 ft 293 kts 324°
2026-04-29 07:07 30.78729 119.88858 10330 ft 298 kts 324°
2026-04-29 07:08 30.80474 119.87382 10559 ft 318 kts 324°
2026-04-29 07:08 30.82305 119.85817 10838 ft 335 kts 324°
2026-04-29 07:08 30.84222 119.84173 11058 ft 353 kts 324°
2026-04-29 07:08 30.86235 119.82450 11521 ft 361 kts 324°
2026-04-29 07:09 30.88247 119.80718 12124 ft 364 kts 323°
2026-04-29 07:09 30.90318 119.78945 12674 ft 369 kts 322°
2026-04-29 07:09 30.92384 119.77171 13215 ft 373 kts 321°
2026-04-29 07:09 30.94485 119.75363 13763 ft 377 kts 320°
2026-04-29 07:10 30.96582 119.73556 14367 ft 378 kts 319°
2026-04-29 07:10 30.98702 119.71725 14836 ft 382 kts 319°
2026-04-29 07:10 31.00839 119.69888 15355 ft 385 kts 319°
2026-04-29 07:10 31.02995 119.68027 15894 ft 386 kts 319°
2026-04-29 07:11 31.05166 119.66151 16375 ft 389 kts 318°
2026-04-29 07:11 31.07342 119.64274 16948 ft 388 kts 317°
2026-04-29 07:11 31.09510 119.62396 17388 ft 392 kts 317°
2026-04-29 07:11 31.11712 119.60494 17712 ft 398 kts 317°
2026-04-29 07:12 31.13932 119.58572 18300 ft 395 kts 317°
2026-04-29 07:12 31.16164 119.56639 18680 ft 399 kts 317°
2026-04-29 07:12 31.18381 119.54718 19041 ft 404 kts 317°
2026-04-29 07:12 31.20635 119.52763 19529 ft 404 kts 317°
2026-04-29 07:13 31.22890 119.50809 19960 ft 405 kts 316°
2026-04-29 07:13 31.25142 119.48853 20248 ft 411 kts 316°
2026-04-29 07:13 31.27394 119.46898 20762 ft 410 kts 316°
2026-04-29 07:13 31.29698 119.44895 21046 ft 415 kts 316°
2026-04-29 07:14 31.32028 119.42865 21440 ft 416 kts 316°
2026-04-29 07:14 31.34345 119.40852 21866 ft 416 kts 315°
2026-04-29 07:14 31.36666 119.38832 22150 ft 420 kts 315°
2026-04-29 07:14 31.39008 119.36794 22618 ft 419 kts 315°
2026-04-29 07:15 31.41308 119.34784 22821 ft 424 kts 315°
2026-04-29 07:15 31.43680 119.32716 23178 ft 426 kts 314°
2026-04-29 07:15 31.46012 119.30679 23601 ft 426 kts 315°
2026-04-29 07:15 31.48436 119.28561 23825 ft 431 kts 315°
2026-04-29 07:16 31.50809 119.26492 24272 ft 431 kts 314°
2026-04-29 07:16 31.53231 119.24369 24559 ft 434 kts 314°
2026-04-29 07:16 31.55670 119.22238 24841 ft 438 kts 314°
2026-04-29 07:16 31.58102 119.20081 25061 ft 443 kts 313°
2026-04-29 07:17 31.60550 119.17913 25427 ft 444 kts 314°
2026-04-29 07:17 31.63018 119.15725 25709 ft 448 kts 314°
2026-04-29 07:17 31.65548 119.13560 25989 ft 453 kts 315°
2026-04-29 07:17 31.67981 119.11304 26386 ft 443 kts 307°
2026-04-29 07:18 31.70238 119.08813 26557 ft 448 kts 308°
2026-04-29 07:18 31.72552 119.06336 26811 ft 453 kts 308°
2026-04-29 07:18 31.74901 119.03870 27339 ft 449 kts 308°
2026-04-29 07:18 31.77218 119.01450 27508 ft 455 kts 308°
2026-04-29 07:19 31.79625 118.98968 27734 ft 459 kts 311°
2026-04-29 07:19 31.82249 118.96783 28139 ft 471 kts 318°
2026-04-29 07:19 31.85226 118.95022 28291 ft 489 kts 327°
2026-04-29 07:19 31.88417 118.93585 28638 ft 491 kts 328°
2026-04-29 07:20 31.91633 118.92127 28733 ft 497 kts 329°
2026-04-29 07:20 31.94811 118.90700 29238 ft 493 kts 328°
2026-04-29 07:20 31.98073 118.89226 29247 ft 501 kts 328°
2026-04-29 07:20 32.01312 118.87769 29656 ft 500 kts 328°
2026-04-29 07:21 32.04557 118.86307 29814 ft 504 kts 329°
2026-04-29 07:21 32.07851 118.84822 30108 ft 504 kts 328°
2026-04-29 07:21 32.11139 118.83340 30414 ft 504 kts 329°
2026-04-29 07:21 32.14394 118.81873 30641 ft 505 kts 329°
2026-04-29 07:22 32.17720 118.80370 30702 ft 510 kts 328°
2026-04-29 07:22 32.21020 118.78889 31367 ft 501 kts 329°
2026-04-29 07:22 32.24278 118.77412 31427 ft 506 kts 329°
2026-04-29 07:22 32.27542 118.75936 31704 ft 505 kts 328°
2026-04-29 07:23 32.30830 118.74451 32125 ft 501 kts 329°
2026-04-29 07:23 32.37401 118.71469 32426 ft 505 kts 328°
2026-04-29 07:23 32.40661 118.69994 32742 ft 503 kts 328°
2026-04-29 07:24 32.43928 118.68508 32874 ft 505 kts 328°
2026-04-29 07:24 32.47195 118.67027 33206 ft 503 kts 328°
2026-04-29 07:24 32.50423 118.65548 33344 ft 494 kts 327°
2026-04-29 07:25 32.56717 118.62653 33278 ft 474 kts 327°
2026-04-29 07:25 32.62734 118.59895 33237 ft 456 kts 326°
2026-04-29 07:26 32.68566 118.57307 33149 ft 446 kts 330°
2026-04-29 07:26 32.74462 118.55248 33111 ft 435 kts 330°
2026-04-29 07:27 32.80286 118.53198 33129 ft 444 kts 331°
2026-04-29 07:27 32.86318 118.51053 33156 ft 457 kts 332°
2026-04-29 07:27 32.96425 118.47440 33261 ft 463 kts 332°
2026-04-29 07:28 33.35907 118.33210 33335 ft 469 kts 332°
2026-04-29 07:28 33.42279 118.30923 33366 ft 481 kts 332°
2026-04-29 07:29 33.48760 118.28586 33424 ft 492 kts 332°
2026-04-29 07:29 33.67412 118.21780 33751 ft 497 kts 332°
2026-04-29 07:29 33.79535 118.17393 33823 ft 503 kts 333°
2026-04-29 07:29 33.82861 118.16201 34052 ft 503 kts 333°
2026-04-29 07:30 33.86250 118.14968 34144 ft 506 kts 333°
2026-04-29 07:30 33.89605 118.13751 34284 ft 506 kts 333°
2026-04-29 07:30 33.92966 118.12542 34233 ft 507 kts 333°
2026-04-29 07:31 34.02974 118.08888 34246 ft 498 kts 333°
2026-04-29 07:31 34.09616 118.06485 34263 ft 501 kts 333°
2026-04-29 07:32 34.16355 118.04024 34238 ft 503 kts 333°
2026-04-29 07:32 34.23064 118.01582 34235 ft 503 kts 333°
2026-04-29 07:33 34.29781 117.99151 34230 ft 502 kts 334°
2026-04-29 07:33 34.36475 117.96767 34230 ft 502 kts 333°
2026-04-29 07:34 34.43151 117.94383 34232 ft 502 kts 333°
2026-04-29 07:34 34.49876 117.91969 34230 ft 504 kts 334°
2026-04-29 07:35 34.56608 117.89557 34235 ft 503 kts 334°
2026-04-29 07:35 34.63313 117.87157 34233 ft 502 kts 333°
2026-04-29 07:36 34.70002 117.84755 34236 ft 503 kts 333°
2026-04-29 07:36 34.76736 117.82331 34235 ft 504 kts 333°
2026-04-29 07:37 34.83438 117.79909 34238 ft 501 kts 333°
2026-04-29 07:37 34.90112 117.77463 34244 ft 505 kts 333°
2026-04-29 07:38 34.96868 117.74994 34242 ft 504 kts 334°
2026-04-29 07:38 35.03564 117.72543 34240 ft 503 kts 333°
2026-04-29 07:39 35.10260 117.70087 34241 ft 504 kts 333°
2026-04-29 07:39 35.17016 117.67609 34226 ft 504 kts 333°
2026-04-29 07:40 35.23727 117.65144 34225 ft 503 kts 333°
2026-04-29 07:40 35.30428 117.62676 34225 ft 504 kts 334°
2026-04-29 07:41 35.37182 117.60185 34226 ft 506 kts 333°
2026-04-29 07:41 35.43863 117.57720 34218 ft 501 kts 333°
2026-04-29 07:42 35.50573 117.55235 34220 ft 502 kts 333°
2026-04-29 07:42 35.57268 117.52753 34229 ft 502 kts 333°
2026-04-29 07:43 35.63942 117.50275 34216 ft 503 kts 333°
2026-04-29 07:43 35.70629 117.47788 34218 ft 500 kts 333°
2026-04-29 07:44 35.77273 117.45311 34218 ft 501 kts 333°
2026-04-29 07:44 35.83930 117.42827 34218 ft 500 kts 333°
2026-04-29 07:45 35.90597 117.40334 34216 ft 499 kts 334°
2026-04-29 07:45 35.97242 117.37843 34222 ft 501 kts 334°
2026-04-29 07:46 36.03917 117.35365 34216 ft 498 kts 334°
2026-04-29 07:46 36.10572 117.32905 34230 ft 499 kts 333°
2026-04-29 07:47 36.17233 117.30442 34210 ft 495 kts 333°
2026-04-29 07:47 36.23795 117.28005 34216 ft 496 kts 334°
2026-04-29 07:48 36.30424 117.25542 34219 ft 498 kts 334°
2026-04-29 07:48 36.37036 117.23085 34226 ft 492 kts 334°
2026-04-29 07:49 36.43580 117.20660 34221 ft 489 kts 330°
2026-04-29 07:49 36.49770 117.17316 34217 ft 485 kts 327°
2026-04-29 07:50 36.55990 117.13992 34212 ft 486 kts 328°
2026-04-29 07:50 36.62166 117.10741 34212 ft 482 kts 328°
2026-04-29 07:51 36.68328 117.07512 34205 ft 482 kts 328°
2026-04-29 07:51 36.74532 117.04264 34196 ft 482 kts 328°
2026-04-29 07:52 36.80706 117.01026 34196 ft 485 kts 328°
2026-04-29 07:52 36.86944 116.97755 34196 ft 483 kts 328°
2026-04-29 07:53 36.93080 116.94531 34194 ft 480 kts 328°
2026-04-29 07:53 36.99245 116.91284 34201 ft 481 kts 329°
2026-04-29 07:54 37.05397 116.88040 34195 ft 480 kts 329°
2026-04-29 07:54 37.11563 116.84782 34190 ft 480 kts 329°
2026-04-29 07:55 37.17727 116.81519 34183 ft 480 kts 329°
2026-04-29 07:55 37.24004 116.78579 34192 ft 485 kts 336°
2026-04-29 07:56 37.30459 116.76128 34181 ft 485 kts 336°
2026-04-29 07:56 37.36895 116.73686 34181 ft 486 kts 336°
2026-04-29 07:57 37.43356 116.71236 34184 ft 486 kts 336°
2026-04-29 07:57 37.49840 116.68776 34181 ft 485 kts 336°
2026-04-29 07:58 37.56284 116.66327 34181 ft 484 kts 337°
2026-04-29 07:58 37.62728 116.63874 34118 ft 483 kts 337°
2026-04-29 07:59 37.69141 116.61428 34177 ft 484 kts 337°
2026-04-29 07:59 37.75601 116.58961 34171 ft 483 kts 337°
2026-04-29 08:00 37.82003 116.56511 34178 ft 482 kts 337°
2026-04-29 08:00 37.88451 116.54039 34166 ft 483 kts 338°
2026-04-29 08:01 37.94861 116.51522 34173 ft 480 kts 333°
2026-04-29 08:01 38.00609 116.47510 34178 ft 468 kts 319°
2026-04-29 08:02 38.05907 116.42760 34174 ft 468 kts 319°
2026-04-29 08:02 38.11189 116.37959 34165 ft 469 kts 319°
2026-04-29 08:03 38.16516 116.33085 34172 ft 469 kts 319°
2026-04-29 08:03 38.22138 116.28809 34177 ft 478 kts 333°
2026-04-29 08:04 38.28707 116.26805 34174 ft 491 kts 352°
2026-04-29 08:04 38.35558 116.27454 34181 ft 500 kts 10°
2026-04-29 08:05 38.42231 116.29890 34167 ft 502 kts 12°
2026-04-29 08:05 38.49031 116.32306 33394 ft 515 kts 13°
2026-04-29 08:06 38.52455 116.33500 32747 ft 513 kts 14°
2026-04-29 08:06 38.55868 116.34685 32102 ft 508 kts 15°
2026-04-29 08:06 38.59261 116.35864 31452 ft 505 kts 16°
2026-04-29 08:06 38.62645 116.37035 30997 ft 496 kts 17°
2026-04-29 08:07 38.65910 116.38123 30987 ft 479 kts 14°
2026-04-29 08:07 38.69155 116.39034 30456 ft 474 kts 14°
2026-04-29 08:07 38.72357 116.39934 29919 ft 469 kts 15°
2026-04-29 08:07 38.75502 116.40823 29431 ft 459 kts 14°
2026-04-29 08:08 38.78544 116.41689 29111 ft 443 kts 13°
2026-04-29 08:08 38.81574 116.42549 28320 ft 446 kts 12°
2026-04-29 08:08 38.84594 116.43407 27729 ft 448 kts 11°
2026-04-29 08:08 38.87629 116.44276 27328 ft 450 kts
2026-04-29 08:09 38.90667 116.45129 26835 ft 443 kts
2026-04-29 08:09 38.93638 116.45969 26370 ft 437 kts 10°
2026-04-29 08:09 38.96610 116.46811 25860 ft 432 kts 11°
2026-04-29 08:09 38.99521 116.47638 25367 ft 426 kts 11°
2026-04-29 08:10 39.02381 116.48452 24826 ft 421 kts 11°
2026-04-29 08:10 39.05196 116.49254 24295 ft 416 kts 11°
2026-04-29 08:10 39.07989 116.50050 23763 ft 411 kts 12°
2026-04-29 08:10 39.10819 116.50606 23203 ft 405 kts
2026-04-29 08:11 39.13565 116.50514 22661 ft 401 kts 354°
2026-04-29 08:11 39.16230 116.50142 22120 ft 397 kts 354°
2026-04-29 08:11 39.18991 116.49751 21567 ft 392 kts 354°
2026-04-29 08:11 39.21700 116.49350 21018 ft 388 kts 354°
2026-04-29 08:12 39.24353 116.48949 20455 ft 385 kts 354°
2026-04-29 08:12 39.27008 116.48545 19891 ft 382 kts 354°
2026-04-29 08:12 39.29638 116.48138 19330 ft 379 kts 354°
2026-04-29 08:12 39.32236 116.47736 18774 ft 376 kts 354°
2026-04-29 08:13 39.34839 116.47330 18224 ft 372 kts 354°
2026-04-29 08:13 39.37406 116.46931 17680 ft 369 kts 354°
2026-04-29 08:13 39.39953 116.46533 17138 ft 366 kts 354°
2026-04-29 08:13 39.42466 116.46141 16600 ft 362 kts 354°
2026-04-29 08:14 39.44879 116.45763 16072 ft 359 kts 354°
2026-04-29 08:14 39.47290 116.45579 15518 ft 355 kts
2026-04-29 08:14 39.49603 116.46179 14984 ft 349 kts 19°
2026-04-29 08:14 39.51896 116.47201 14442 ft 346 kts 20°
2026-04-29 08:15 39.54121 116.48190 13921 ft 343 kts 20°
2026-04-29 08:15 39.56378 116.49212 13390 ft 341 kts 20°
2026-04-29 08:15 39.58611 116.50230 12865 ft 338 kts 20°
2026-04-29 08:15 39.60834 116.51251 12342 ft 335 kts 20°
2026-04-29 08:16 39.63029 116.52259 11820 ft 333 kts 20°
2026-04-29 08:16 39.65181 116.53250 11309 ft 331 kts 20°
2026-04-29 08:16 39.67346 116.54249 10796 ft 328 kts 20°
2026-04-29 08:16 39.69508 116.55248 10283 ft 326 kts 20°
2026-04-29 08:17 39.71634 116.56231 9753 ft 325 kts 20°
2026-04-29 08:17 39.73731 116.57201 9233 ft 324 kts 19°
2026-04-29 08:17 39.75817 116.58167 8729 ft 312 kts 19°
2026-04-29 08:17 39.77824 116.59096 8204 ft 297 kts 19°
2026-04-29 08:18 39.79756 116.59993 7472 ft 293 kts 19°
2026-04-29 08:18 39.81653 116.60878 6736 ft 290 kts 19°
2026-04-29 08:18 39.83602 116.61286 6030 ft 283 kts 352°
2026-04-29 08:18 39.85502 116.60908 5391 ft 276 kts 352°
2026-04-29 08:19 39.87355 116.61220 4817 ft 269 kts 30°
2026-04-29 08:19 39.88577 116.62957 4032 ft 275 kts 73°
2026-04-29 08:19 39.88277 116.65292 3277 ft 268 kts 137°
2026-04-29 08:19 39.86790 116.66629 2839 ft 255 kts 165°
2026-04-29 08:20 39.85166 116.66670 3109 ft 222 kts 205°
2026-04-29 08:20 39.84078 116.65457 3092 ft 200 kts 249°
2026-04-29 08:20 39.83924 116.63800 3097 ft 179 kts 273°
2026-04-29 08:20 39.84294 116.62386 3067 ft 156 kts 314°
2026-04-29 08:21 39.85035 116.61521 3041 ft 137 kts 319°
2026-04-29 08:21 39.85820 116.60760 3066 ft 146 kts 331°
2026-04-29 08:21 39.86836 116.60517 3074 ft 150 kts
2026-04-29 08:21 39.87891 116.60522 3040 ft 150 kts 352°
2026-04-29 08:22 39.88911 116.60327 3046 ft 148 kts 351°
2026-04-29 08:22 39.89943 116.60140 3050 ft 149 kts 352°
2026-04-29 08:22 39.90972 116.59995 3045 ft 149 kts 352°
2026-04-29 08:22 39.92004 116.59836 3046 ft 149 kts 352°
2026-04-29 08:23 39.93053 116.59672 2917 ft 156 kts 352°
2026-04-29 08:23 39.94127 116.59503 2714 ft 154 kts 352°
2026-04-29 08:23 39.95192 116.59336 2505 ft 152 kts 352°
2026-04-29 08:23 39.96237 116.59174 2308 ft 151 kts 352°
2026-04-29 08:24 39.97265 116.59015 2097 ft 148 kts 352°
2026-04-29 08:24 39.98276 116.58826 1893 ft 145 kts 349°